Guernsey, United Kingdom

5:35 PM BST on July 27, 2016 (GMT +0100)
Guernsey

Weather History for EGJB - September, 2012

Change the Weather History Date:

Saturday, September 8, 2012

  Actual Average Record
Temperature  
Mean Temperature 64 °F -  
Max Temperature 74 °F 61 °F 74 °F (2012)
Min Temperature 53 °F 54 °F 51 °F (2008)
Degree Days  
Heating Degree Days 2    
Growing Degree Days 14 (Base 50)    
Moisture  
Dew Point 54 °F    
Average Humidity 71    
Maximum Humidity 100    
Minimum Humidity 31    
Precipitation  
Precipitation 0.00 in - - ()
Sea Level Pressure  
Sea Level Pressure 30.12 in    
Wind  
Wind Speed 5 mph ()    
Max Wind Speed 8 mph    
Max Gust Speed -    
Visibility 11.1 miles    
Events Fog    
Averages and records for this station are not official NWS values.
T = Trace of Precipitation, MM = Missing Value Source: Averaged Metar Reports

Daily Weather History Graph

Daily Weather History Graph

Search for Another Location

Airport or City:

Trip Planner

Search our weather history database for the weather conditions in past years. The results will help you decide how hot, cold, wet, or windy it might be!

Date:

Astronomy

Sep. 08, 2012 Rise Set
Actual Time 6:36 AM BST 7:38 PM BST
Civil Twilight 6:04 AM BST 8:10 PM BST
Nautical Twilight 5:24 AM BST 8:49 PM BST
Astronomical Twilight 4:43 AM BST 9:31 PM BST
Moon 11:30 PM BST (9/8) 2:47 PM BST (9/8)
Length of Visible Light 14h 06m
Length of Day
13h 01m
Waning Gibbous, 51% of the Moon is Illuminated
Sep 8
Waning Gibbous
Sep 8
Last Quarter
Sep 16
New
Sep 22
First Quarter
Sep 30
Full

Hourly Weather History & Observations

Time (BST) Temp. Dew Point Humidity Pressure Visibility Wind Dir Wind Speed Gust Speed Precip Events Conditions
1:00 AM 56 °F 53 °F 87% 30.25 in 16 mi ESE 5.8 mph - -   Clear
3:50 AM 53.6 °F 50.0 °F 88% 30.21 in - East 4.6 mph - N/A   Clear
4:00 AM 53 °F 50 °F 86% 30.22 in 19 mi East 4.6 mph - -   Clear
4:20 AM 55.4 °F 51.8 °F 88% 30.18 in - ENE 6.9 mph - N/A   Clear
4:50 AM 55.4 °F 53.6 °F 94% 30.18 in - ENE 8.1 mph - N/A   Clear
5:50 AM 57.2 °F 57.2 °F 100% 30.18 in 2.5 mi NE 4.6 mph - N/A Fog Mist
6:20 AM 57.2 °F 57.2 °F 100% 30.18 in 6.2 mi ENE 4.6 mph - N/A   Unknown
6:50 AM 57.2 °F 57.2 °F 100% 30.18 in - NE 5.8 mph - N/A   Clear
7:20 AM 57.2 °F 57.2 °F 100% 30.18 in 5.6 mi East 4.6 mph - N/A   Unknown
7:50 AM 59.0 °F 59.0 °F 100% 30.15 in 5.0 mi ENE 5.8 mph - N/A   Unknown
8:20 AM 60.8 °F 59.0 °F 94% 30.15 in - East 6.9 mph - N/A   Clear
8:50 AM 60.8 °F 57.2 °F 88% 30.15 in - ESE 6.9 mph - N/A   Clear
9:20 AM 60.8 °F 59.0 °F 94% 30.15 in - ESE 6.9 mph - N/A   Clear
9:50 AM 66.2 °F 60.8 °F 83% 30.15 in - ESE 8.1 mph - N/A   Clear
10:00 AM 66 °F 60 °F 76% 30.16 in 11 mi East 8.1 mph - -   Clear
10:20 AM 64.4 °F 59.0 °F 83% 30.15 in - ESE 8.1 mph - N/A   Clear
10:50 AM 66.2 °F 59.0 °F 78% 30.15 in - ESE 6.9 mph - N/A   Clear
11:20 AM 66.2 °F 59.0 °F 78% 30.15 in 6.2 mi SE 4.6 mph - N/A   Partly Cloudy
11:50 AM 66.2 °F 57.2 °F 73% 30.15 in - SE 3.5 mph - N/A   Clear
12:20 PM 69.8 °F 53.6 °F 56% 30.15 in - SE 5.8 mph - N/A   Clear
12:50 PM 69.8 °F 55.4 °F 60% 30.12 in - SSE 5.8 mph - N/A   Clear
1:00 PM 69 °F 55 °F 51% 30.14 in 16 mi SSE 5.8 mph - -   Scattered Clouds
1:20 PM 71.6 °F 53.6 °F 53% 30.12 in - SSE 5.8 mph - N/A   Clear
1:50 PM 68.0 °F 50.0 °F 52% 30.12 in - SE 3.5 mph - N/A   Clear
2:20 PM 69.8 °F 50.0 °F 49% 30.12 in - Variable 2.3 mph - N/A   Clear
2:50 PM 71.6 °F 48.2 °F 43% 30.09 in - Calm Calm - N/A   Clear
3:20 PM 73.4 °F 48.2 °F 41% 30.09 in - SE 4.6 mph - N/A   Clear
3:50 PM 73.4 °F 48.2 °F 41% 30.09 in - Variable 3.5 mph - N/A   Clear
4:00 PM 73 °F 49 °F 31% 30.09 in 19 mi SE 3.5 mph - -   Clear
4:20 PM 73.4 °F 50.0 °F 44% 30.06 in - Variable 3.5 mph - N/A   Clear
4:50 PM 73.4 °F 51.8 °F 47% 30.06 in - Variable 2.3 mph - N/A   Clear
5:20 PM 73.4 °F 51.8 °F 47% 30.06 in - ENE 6.9 mph - N/A   Clear
5:50 PM 69.8 °F 51.8 °F 53% 30.04 in - ENE 5.8 mph - N/A   Clear
6:20 PM 68.0 °F 53.6 °F 60% 30.04 in - ENE 8.1 mph - N/A   Clear
6:50 PM 66.2 °F 53.6 °F 64% 30.04 in - ENE 6.9 mph - N/A   Clear
7:00 PM 66 °F 53 °F 54% 30.04 in 22 mi ENE 6.9 mph - -   Clear
7:20 PM 64.4 °F 55.4 °F 73% 30.04 in - ENE 8.1 mph - N/A   Clear
7:50 PM 62.6 °F 55.4 °F 77% 30.04 in - ENE 6.9 mph - N/A   Clear
8:20 PM 59.0 °F 53.6 °F 82% 30.04 in - East 5.8 mph - N/A   Clear
8:50 PM 64.4 °F 55.4 °F 73% 30.01 in - ESE 5.8 mph - N/A   Clear
10:00 PM 64 °F 53 °F 58% 30.03 in 16 mi ESE 5.8 mph - -   Clear